[ x ]
ituDewa

Jackpot

Texas Poker Multi Jackpot System

Kini Telah hadir Jackpot SUPER ROYAL FLUSH

Kini Telah hadir Jackpot 2000 (khusus table VIP keatas).

Ikutilah global jackpot yang tersedia di system kami, dengan system jackpot terbaru dan pertama di indonesia, anda dapat membeli jackpot dengan harga 100 rupiah saja dan menangkan hadiahnya hingga puluhan juta rupiah.

Jackpot bukanlah suatu keharusan untuk dibeli, namun kami memberikan suatu fitur tambahan untuk member tercinta dari www.itudewaku.com.

Terdapat tiga pilihan harga jackpot yang bisa anda beli yaitu :100,500,1000 dan 2000(khusus table VIP Keatas) rupiah.

Hadiah dari Multi jackpot system www.itudewaku.com

  1. full house x 10 harga jackpot yang anda beli.
      (contoh:anda membeli 1000 maka:1000 X10 = 10.000)
  2. four of kind x 250 harga jackpot yang anda beli
      (contoh:anda membeli 1000 maka:1000 X250 = 250.000)
  3. Straight flush x 1200
      (contoh:anda membeli 1000 maka:1000 X1200 = 1.200.000)
  4. Royal flush x 10000 harga jackpot yang anda beli
      (contoh:anda membeli 1000 maka:1000 X10000 = 10.000.000)
  5. SUPER ROYAL FLUSH x 30000 harga jackpot yang anda beli
      (contoh:anda membeli 1000 maka:1000 X30000 = 30.000.000)

Kondisi kartu

  1. full house adalah kondisi kartu dimana kartu anda dan kartu tengah dengan total 7 kartu bisa mendapatkan nilai 5 kartu dengan kombinasi 1 tris(three of kind) dan 1 pair, contoh 3 kartu 10 dan 2 kartu 5
  2. Four of kind adalah kondisi kartu dimana kartu anda dan kartu tengah dengan total 7 kartu bisa mendapatkan nilai 5 kartu dengan kombinasi 4 kartu yang sama jumlah dan 1 kartu apapun juga contoh anda mendapatkan 4 buah kartu angka 3 dan 1 kartu apapun.
  3. Staright flush adalah kondisi kartu dimana kartu anda dan kartu tengah dengan total 7 kartu bisa mendapatkan nilai 5 kartu dengan kombinasi seri / staright dengan kembang yang sama contoh : urutan kartu dari angka 5, 6, 7, 8 , 9 10 dengan kembang yg sama misalnya as hati
  4. Royal flush adalah kondisi kartu dimana kartu anda dan kartu tengah dengan total 7 kartu bisa mendapatkan nilai 5 kartu dengan kombinasi seri / staright dengan kembang yang sama tetapi kartu tersebut haruslah dimulai dari 10. contoh 10, Queen, Jack, King dan aces dengan kembang yang sama
  5. Super Royal flush adalah kondisi kartu dimana Kedua kartu anda digabung dengan 3 kartu pertama meja haruslah royal flush. contoh kartu anda 10,Queen kembang sama dan 3 kartu pertama meja adalah Jack, King dan aces dengan kembang yang sama

Demikian adalah penjelasan dari Multi Jackpot www.itudewaku.com terima kasih dan selamat bermain salam hoki dari kami

Texas Poker Jackpot Winner

TOP SUPER ROYAL FLUSH
No.TanggalNamaPriceWin
118/08 20:44MPUCK00Super Royal flush6,000,000
218/08 19:54G3RARD85Super Royal flush15,000,000
318/08 19:22IRA23Super Royal flush15,000,000
418/08 14:54LASTFAST33Super Royal flush15,000,000
518/08 10:17GODSICKSuper Royal flush15,000,000
TOP ROYAL FLUSH
No.TanggalNamaPriceWin
118/08 21:04REYHAN3333Royal flush1,000,000
218/08 21:04RASKAATARARoyal flush5,000,000
318/08 20:54NGAPAXRoyal flush5,000,000
418/08 20:47HOKIAK02Royal flush2,000,000
518/08 20:41RISDA24Royal flush20,000,000
TOP STRAIGHT FLUSH
No.TanggalNamaPriceWin
118/08 21:11MANCOLOKStraight Flush1,200,000
218/08 21:11DWBTMH3665Straight Flush600,000
318/08 21:10CHECHE78Straight Flush1,200,000
418/08 21:10MRPATI16Straight Flush240,000
518/08 21:08PMBRJPStraight Flush240,000
LATEST JACKPOT
No.TanggalNamaPriceWin
118/08 21:12PRIASFour Of A Kind50,000
218/08 21:12I5BFJ3L0RBFull House5,000
318/08 21:12WITHDRAW37Full House500
418/08 21:12DC262F05Full House1,000
518/08 21:12HAPPY_FIV3Four Of A Kind25,000
618/08 21:12DEWAJODI13Full House5,000
718/08 21:12TABAK456Full House5,000
818/08 21:12MHF1998Full House5,000
918/08 21:12LOPEFull House5,000
1018/08 21:12GENJIEFull House5,000
1118/08 21:12PONCO007Full House2,000
1218/08 21:12DA297FA1Full House2,000
1318/08 21:12T2XY57YQ2IFour Of A Kind50,000
1418/08 21:12WAWAN_9999Full House1,000
1518/08 21:11SALASZ99Full House1,000
1618/08 21:11GAONKFull House2,000
1718/08 21:11ELL2578TOKFull House10,000
1818/08 21:11NATIROFull House2,000
1918/08 21:11IGIT132Four Of A Kind50,000
2018/08 21:11OSKARJAFull House2,000
2118/08 21:11KOJO919Full House2,000
2218/08 21:11DOROKU3Full House5,000
2318/08 21:11VOLTAC6666Full House5,000
2418/08 21:11ANDA44Full House5,000
2518/08 21:11BINTUHAN20Full House2,000
2618/08 21:11RAQUEL84Full House2,000
2718/08 21:11K451_871ZFull House2,000
2818/08 21:11NINGSIH567Full House2,000
2918/08 21:11GERRYTP114Four Of A Kind50,000
3018/08 21:11SADRIANSYFull House5,000
3118/08 21:11ZNPECWRCXIFull House1,000
3218/08 21:11YOKSNAFull House1,000
3318/08 21:11GIGOLO34Full House2,000
3418/08 21:11RIZKI8899Full House10,000
3518/08 21:11CS7Full House2,000
3618/08 21:11ONE68Full House2,000
3718/08 21:11TEXAS303_Full House10,000
3818/08 21:11TAUFIK1205Full House5,000
3918/08 21:11LK4DLASKARSOFIFull House5,000
4018/08 21:11CEPEK898Full House2,000
4118/08 21:11MT5GE3WJ8RFull House500
4218/08 21:11FAIRFull House1,000
4318/08 21:11RATURAJA99Full House5,000
4418/08 21:11E65D96A6Full House5,000
4518/08 21:11TANGTUNG88Full House5,000
4618/08 21:11NOLA66Full House5,000
4718/08 21:11DEWACSFull House2,000
4818/08 21:11SETIAWANDIFull House5,000
4918/08 21:11BBG88Full House10,000
5018/08 21:11KING_POUR4Full House2,000

Domino Multi Jackpot System

Ikutilah global jackpot yang tersedia di system kami, dengan system jackpot terbaru dan pertama di indonesia, anda dapat membeli jackpot dengan harga 100 rupiah saja dan menangkan hadiahnya hingga puluhan juta rupiah.

Jackpot bukanlah suatu keharusan untuk dibeli, namun kami memberikan suatu fitur tambahan untuk member tercinta dari www.itudewaku.com.

Terdapat tiga pilihan harga jackpot yang bisa anda beli yaitu :100,500 dan 1000 rupiah.

Hadiah dari Multi jackpot system www.itudewaku.com

  1. Murni Kecil x 50 harga jackpot yang anda beli.
      (contoh:anda membeli 1000 maka:1000 X 50 = 50.000)
  2. Murni Besar x 50 harga jackpot yang anda beli
      (contoh:anda membeli 1000 maka:1000 X 50 = 50.000)
  3. BALAK x 100 harga jackpot yang anda beli
      (contoh:anda membeli 1000 maka:1000 X 100 = 100.000)
  4. ENAM DEWA x 6666 harga jackpot yang anda beli
      (contoh:anda membeli 1000 maka:1000 X 6666 = 6.666.000)

Demikian adalah penjelasan dari Multi Jackpot www.itudewaku.com terima kasih dan selamat bermain salam hoki dari kami

Domino Jackpot Winner

TOP ENAM DEWA
No.TanggalNamaPriceWin
118/08 20:28ADIIT88murni enam3,333,000
218/08 19:47CB99A51Emurni enam666,600
318/08 19:20GILAGILAAmurni enam6,666,000
418/08 18:58ANOM78murni enam3,333,000
518/08 18:25DOBOLL9murni enam666,600
TOP BALAK
No.TanggalNamaPriceWin
118/08 21:09AAL_JUNIORbalak50,000
218/08 21:06IWAN318balak10,000
318/08 21:05UJUDEWAbalak10,000
418/08 21:04MONSTER1balak100,000
518/08 21:02K0D0K12balak10,000
LATEST JACKPOT
No.TanggalNamaPriceWin
118/08 21:11KATAORANGmurni besar25,000
218/08 21:11D3DY096murni kecil50,000
318/08 21:11MHERI9murni kecil50,000
418/08 21:11KAROGALAKmurni kecil5,000
518/08 21:09AAL_JUNIORbalak50,000
618/08 21:09SUSANTO_1murni kecil5,000
718/08 21:08ARY192murni kecil25,000
818/08 21:07ARIEF1717murni kecil50,000
918/08 21:07KUD73murni besar25,000
1018/08 21:07AYB01murni besar5,000
1118/08 21:07ROCKGILISmurni besar25,000
1218/08 21:06SRNFRABU4311murni kecil50,000
1318/08 21:06TEMPUR485murni kecil50,000
1418/08 21:06AIBONK111murni kecil50,000
1518/08 21:06IWAN318balak10,000
1618/08 21:06GAMNZUWW3Zmurni kecil5,000
1718/08 21:05UJUDEWAbalak10,000
1818/08 21:05HERMAN78murni besar50,000
1918/08 21:05FLO121DINAmurni kecil25,000
2018/08 21:05AIRSCALA22murni kecil25,000
2118/08 21:04CB99A51Emurni besar50,000
2218/08 21:04MONSTER1balak100,000
2318/08 21:04FURDIATmurni kecil50,000
2418/08 21:04OMRE89murni besar5,000
2518/08 21:03IMAMMUJASUmurni kecil25,000
2618/08 21:03LB881007murni kecil25,000
2718/08 21:03JHUDI99murni besar5,000
2818/08 21:03BGNG57murni besar5,000
2918/08 21:02K0D0K12balak10,000
3018/08 21:02GFRMUX2G54lucky9910,000
3118/08 21:02T212BOM99balak10,000
3218/08 21:01C06DD80Bmurni kecil5,000
3318/08 21:01FURDIATbalak100,000
3418/08 21:01MURAY01murni besar5,000
3518/08 21:00SARIDIN12murni kecil50,000
3618/08 21:00LOYFUF4UC0murni besar50,000
3718/08 21:00UMARPOPEYElucky992,500
3818/08 20:58BELIMTRbalak50,000
3918/08 20:58IBARA1murni kecil50,000
4018/08 20:57AGENT24murni besar50,000
4118/08 20:57JANUARY20murni kecil50,000
4218/08 20:57GAMNZUWW3Zbalak10,000
4318/08 20:57FZRWK_BOMbalak50,000
4418/08 20:56GALIHQQmurni besar5,000
4518/08 20:55JALAT002murni kecil5,000
4618/08 20:55TEEJAY99murni kecil25,000
4718/08 20:55T4DBENTO0303murni besar25,000
4818/08 20:54STAGIElucky9910,000
4918/08 20:54BOLLYYmurni besar25,000
5018/08 20:54DOA_IBU_MUlucky992,500

Ceme Multi Jackpot System

Jackpot dilihat dari gabungan kartu pemain dengan kartu bandar. Bandar harus membeli jackpot sebanyak jumlah player yang sedang duduk. Sebagai contoh bila terdapat 3 pemain duduk bermain, dan bandar memutuskan untuk membeli jackpot Rp 1.000, maka pada periode tersebut bandar akan membeli jackpot sebanyak 3xRp1.000 = Rp3.000.

Jackpot bukanlah suatu keharusan untuk dibeli, namun kami memberikan suatu fitur tambahan untuk member tercinta dari www.itudewaku.com.

Terdapat tiga pilihan harga jackpot yang bisa anda beli yaitu :100,500 dan 1000 rupiah.

Hadiah dari Multi jackpot system www.itudewaku.com

  1. Murni Kecil x 50 harga jackpot yang anda beli.
      (contoh:anda membeli 1000 maka:1000 X 50 = 50.000)
  2. Murni Besar x 50 harga jackpot yang anda beli
      (contoh:anda membeli 1000 maka:1000 X 50 = 50.000)
  3. BALAK x 200 harga jackpot yang anda beli
      (contoh:anda membeli 1000 maka:1000 X 200 = 200.000)
  4. ENAM DEWA x 6666 harga jackpot yang anda beli
      (contoh:anda membeli 1000 maka:1000 X 6666 = 6.666.000)

Demikian adalah penjelasan dari Multi Jackpot www.itudewaku.com terima kasih dan selamat bermain salam hoki dari kami

Ceme Jackpot Winner

TOP ENAM DEWA
No.TanggalNamaPriceWin
118/08 21:04JUNAIDI1murni enam666,600
218/08 20:58NIAS86murni enam6,666,000
318/08 20:58HOCKYJACmurni enam3,333,000
418/08 20:34TELONLANG2murni enam6,666,000
518/08 20:28BARCUKmurni enam6,666,000
TOP BALAK
No.TanggalNamaPriceWin
118/08 21:11TIMPOL86balak200,000
218/08 21:11GEDE8911balak200,000
318/08 21:11GUNARNObalak200,000
418/08 21:11KANAILObalak200,000
518/08 21:10HSUHERMANbalak200,000
LATEST JACKPOT
No.TanggalNamaPriceWin
118/08 21:12DIJECKmurni besar25,000
218/08 21:12FAN74murni kecil50,000
318/08 21:11BREMA12murni kecil5,000
418/08 21:11PCX001murni kecil25,000
518/08 21:11DJXmurni kecil25,000
618/08 21:11SINTAA05murni kecil50,000
718/08 21:11EDCBA11murni kecil50,000
818/08 21:11BANDUNG001murni kecil50,000
918/08 21:11HARLEYMOBmurni kecil50,000
1018/08 21:11NOVA99murni besar5,000
1118/08 21:11HAYUNmurni besar25,000
1218/08 21:11KORMI7murni besar50,000
1318/08 21:11GAMINGMLmurni besar50,000
1418/08 21:11HORIZON01murni besar25,000
1518/08 21:11TIMPOL86balak200,000
1618/08 21:11GEDE8911balak200,000
1718/08 21:11GUNARNObalak200,000
1818/08 21:11SIZA769murni kecil25,000
1918/08 21:11EOT87murni kecil5,000
2018/08 21:11KANAILObalak200,000
2118/08 21:11KANAILOmurni kecil50,000
2218/08 21:11MOMAN11murni kecil50,000
2318/08 21:10HSUHERMANbalak200,000
2418/08 21:10K0JEXmurni besar5,000
2518/08 21:10F9331585murni kecil5,000
2618/08 21:10ZEKI66balak200,000
2718/08 21:10LB993557balak200,000
2818/08 21:10MARNA599murni kecil50,000
2918/08 21:10SOFI313murni besar25,000
3018/08 21:10RAHMAT508murni kecil50,000
3118/08 21:10ZIQRYmurni kecil25,000
3218/08 21:10SECCCmurni besar50,000
3318/08 21:10NOVA99murni kecil5,000
3418/08 21:10EVANHTSmurni kecil50,000
3518/08 21:10CAKBEN12murni besar50,000
3618/08 21:10TOKYU21murni besar50,000
3718/08 21:10SYAIDmurni kecil50,000
3818/08 21:10UY78balak20,000
3918/08 21:10UY78murni kecil5,000
4018/08 21:09PDKmurni kecil5,000
4118/08 21:09ZEKI66murni kecil50,000
4218/08 21:09GATGETmurni kecil5,000
4318/08 21:09ALPIYbalak200,000
4418/08 21:09INDRA5981balak20,000
4518/08 21:09SINTAA05murni besar50,000
4618/08 21:09ASIQ09murni besar50,000
4718/08 21:09BODONG01balak100,000
4818/08 21:09MIMI4444murni besar50,000
4918/08 21:09MIMI4444murni besar50,000
5018/08 21:09FANSSS77murni besar50,000